TimeEDT,TemperatureF,Dew PointF,Humidity,Sea Level PressureIn,VisibilityMPH,Wind Direction,Wind SpeedMPH,Gust SpeedMPH,PrecipitationIn,Events,Conditions,WindDirDegrees,DateUTC
12:53 AM,63.0,57.9,84,30.12,10.0,NNE,9.2,-,N/A,,Partly Cloudy,30,2013-05-01 04:53:00
1:53 AM,62.1,57.9,86,30.11,10.0,NNE,9.2,-,N/A,,Clear,20,2013-05-01 05:53:00
2:53 AM,60.1,57.0,90,30.09,10.0,NNE,8.1,-,N/A,,Clear,20,2013-05-01 06:53:00
3:53 AM,60.1,57.0,90,30.10,10.0,NNE,9.2,-,N/A,,Clear,20,2013-05-01 07:53:00
4:11 AM,59.0,57.2,94,30.10,10.0,NNE,8.1,-,N/A,,Partly Cloudy,20,2013-05-01 08:11:00
4:35 AM,59.0,57.2,94,30.11,9.0,North,5.8,-,N/A,,Mostly Cloudy,10,2013-05-01 08:35:00
4:53 AM,59.0,57.0,93,30.11,9.0,NNE,8.1,-,N/A,,Overcast,30,2013-05-01 08:53:00
5:53 AM,59.0,55.9,90,30.13,10.0,NNE,9.2,-,N/A,,Overcast,20,2013-05-01 09:53:00
6:45 AM,60.8,55.4,82,30.13,10.0,NE,8.1,-,N/A,,Overcast,40,2013-05-01 10:45:00
6:53 AM,60.1,55.9,86,30.14,10.0,NE,10.4,-,N/A,,Overcast,40,2013-05-01 10:53:00
7:00 AM,60.8,55.4,82,30.14,10.0,NE,10.4,-,N/A,,Overcast,40,2013-05-01 11:00:00
7:42 AM,60.8,55.4,82,30.14,10.0,NNE,10.4,-,N/A,,Overcast,30,2013-05-01 11:42:00
8:17 AM,60.8,55.4,82,30.14,10.0,NNE,9.2,-,N/A,,Overcast,30,2013-05-01 12:17:00
8:53 AM,63.0,55.9,78,30.15,10.0,North,10.4,-,N/A,,Overcast,10,2013-05-01 12:53:00
9:53 AM,64.9,55.9,73,30.16,10.0,NE,17.3,21.9,N/A,,Overcast,50,2013-05-01 13:53:00
11:18 AM,66.2,57.2,73,30.19,10.0,NE,13.8,-,N/A,,Overcast,40,2013-05-01 15:18:00
11:53 AM,70.0,57.9,65,30.18,10.0,NNE,12.7,20.7,N/A,,Mostly Cloudy,20,2013-05-01 15:53:00
12:23 PM,68.0,57.2,68,30.17,10.0,NNE,12.7,-,N/A,,Overcast,30,2013-05-01 16:23:00
12:37 PM,71.6,59.0,64,30.16,10.0,NNE,12.7,20.7,N/A,,Overcast,30,2013-05-01 16:37:00
12:50 PM,69.8,57.2,64,30.16,10.0,NNE,10.4,-,N/A,,Mostly Cloudy,30,2013-05-01 16:50:00
12:53 PM,71.1,57.9,63,30.16,10.0,NNE,11.5,-,N/A,,Mostly Cloudy,30,2013-05-01 16:53:00
1:32 PM,71.6,57.2,60,30.15,10.0,NNE,12.7,-,N/A,,Mostly Cloudy,30,2013-05-01 17:32:00
1:53 PM,73.9,57.9,57,30.16,10.0,NNE,13.8,-,N/A,,Mostly Cloudy,30,2013-05-01 17:53:00
2:53 PM,69.1,60.1,73,30.17,10.0,ESE,8.1,-,N/A,,Overcast,120,2013-05-01 18:53:00
3:53 PM,68.0,60.1,76,30.16,10.0,ESE,11.5,-,N/A,,Mostly Cloudy,110,2013-05-01 19:53:00
4:36 PM,68.0,60.8,78,30.16,10.0,East,9.2,-,N/A,,Overcast,80,2013-05-01 20:36:00
4:44 PM,68.0,60.8,78,30.16,10.0,East,6.9,-,N/A,,Overcast,90,2013-05-01 20:44:00
4:53 PM,68.0,60.1,76,30.17,10.0,East,11.5,16.1,N/A,,Overcast,90,2013-05-01 20:53:00
5:18 PM,66.2,60.8,83,30.16,9.0,East,6.9,-,N/A,,Overcast,80,2013-05-01 21:18:00
5:41 PM,66.2,62.6,88,30.16,4.0,East,9.2,-,0.00,Rain,Light Rain,90,2013-05-01 21:41:00
5:53 PM,66.9,63.0,87,30.17,5.0,ENE,6.9,-,0.00,,Overcast,70,2013-05-01 21:53:00
6:19 PM,66.2,62.6,88,30.17,4.0,NNE,6.9,-,0.00,Rain,Light Rain,20,2013-05-01 22:19:00
6:31 PM,66.2,62.6,88,30.17,2.0,North,6.9,-,0.01,Rain,Light Rain,360,2013-05-01 22:31:00
6:53 PM,66.0,63.0,90,30.17,5.0,NNE,8.1,-,0.01,,Overcast,20,2013-05-01 22:53:00
7:17 PM,66.2,62.6,88,30.17,5.0,NE,8.1,-,0.00,,Overcast,40,2013-05-01 23:17:00
7:53 PM,64.9,63.0,93,30.17,5.0,NE,9.2,-,0.00,,Mostly Cloudy,40,2013-05-01 23:53:00
8:32 PM,64.4,62.6,94,30.18,10.0,NNE,9.2,-,N/A,,Overcast,30,2013-05-02 00:32:00
8:50 PM,64.4,62.6,94,30.19,10.0,NNE,9.2,-,N/A,,Overcast,30,2013-05-02 00:50:00
8:53 PM,64.9,62.1,90,30.19,10.0,NNE,10.4,-,N/A,,Overcast,30,2013-05-02 00:53:00
9:10 PM,64.4,62.6,94,30.19,10.0,NNE,8.1,-,N/A,,Overcast,20,2013-05-02 01:10:00
9:38 PM,64.4,62.6,94,30.20,10.0,NE,10.4,-,N/A,,Overcast,40,2013-05-02 01:38:00
9:53 PM,64.9,62.1,90,30.21,10.0,NE,9.2,-,N/A,,Overcast,40,2013-05-02 01:53:00
10:53 PM,64.9,63.0,93,30.21,10.0,NNE,8.1,-,0.00,,Overcast,30,2013-05-02 02:53:00
10:59 PM,64.4,62.6,94,30.21,10.0,NE,9.2,-,N/A,,Overcast,40,2013-05-02 02:59:00
11:53 PM,64.9,63.0,93,30.21,10.0,NNE,6.9,-,0.00,,Overcast,30,2013-05-02 03:53:00